Flag Weather past 2 weeks in Waterloo, Ontario, Canada

Now
39 °F

Light rain. Overcast.


Feels Like: 39 °F
Forecast: 35 / 44 °F
Wind: 2 mph from North

Location: Waterloo Well

Current Time: Oct 31, 2014 at 3:13:04 AM

Latest Report: Oct 31, 2014 at 2:00 AM


Visibility: 9 mi

Pressure: 29.99 "Hg

Humidity: 93%

Dew point: 37 °F

Location of WaterlooLocation

Historic Weather in Waterloo — Graph

°F

Waterloo temperature yesterday

Maximum temperature yesterday: 45 °F (at 1:00 PM)
Minimum temperature yesterday: 36 °F (at 2:00 AM)
Average temperature yesterday: 41 °F

Past Weeks' High & Low Weather Summary

 TemperatureHumidityPressure
High66 °F (Oct 28, 11:00 AM)100% (Oct 16, 3:00 AM)30.29 "Hg (Oct 16, 3:00 AM)
Low27 °F (Oct 24, 7:00 AM)48% (Oct 24, 5:00 PM)29.49 "Hg (Oct 17, 3:00 PM)
Average47 °F83%29.89 "Hg
* Reported Oct 16 2:00 AM — Oct 31 1:00 AM, Waterloo, Weather by CustomWeather, © 2014

Note: Actual official high and low records may vary slightly from our data, if they occured in-between our weather recording intervals... More about our weather records

Advertising

Waterloo weather history for previous 24 hours

 ConditionsComfort  
Time TempWeatherWind HumidityBarometerVisibility
1:00 AM
Oct 31
39 °FLight rain. Overcast.5 mph93%30.01 "Hg9 mi
12:51 AM39 °FLight rain. Overcast.3 mph93%30.01 "Hg9 mi
12:00 AM39 °FOvercast.No wind93%30.01 "Hg9 mi
11:00 PM
Oct 30
41 °FPassing clouds.2 mph81%30.03 "Hg9 mi
10:00 PM41 °FPassing clouds.6 mph81%30.05 "Hg9 mi
9:00 PM39 °FClear.5 mph87%30.06 "Hg9 mi
8:00 PM43 °FOvercast.9 mph71%30.06 "Hg9 mi
7:00 PM41 °FOvercast.6 mph76%30.07 "Hg9 mi
6:00 PM43 °FPartly sunny.7 mph71%30.06 "Hg9 mi
5:00 PM45 °FOvercast.6 mph66%30.06 "Hg9 mi
4:00 PM45 °FOvercast.5 mph66%30.06 "Hg9 mi
3:00 PM45 °FMostly cloudy.8 mph66%30.07 "Hg9 mi
2:00 PM45 °FOvercast.12 mph66%30.08 "Hg9 mi
1:00 PM45 °FOvercast.8 mph66%30.09 "Hg9 mi
12:00 PM43 °FOvercast.8 mph76%30.10 "Hg9 mi
11:55 AM43 °FOvercast.12 mph71%30.10 "Hg9 mi
11:00 AM43 °FBroken clouds.10 mph76%30.10 "Hg9 mi
10:00 AM41 °FSunny.12 mph81%30.10 "Hg9 mi
9:00 AM39 °FSunny.9 mph87%30.09 "Hg9 mi
8:00 AM36 °FPassing clouds.7 mph93%30.08 "Hg9 mi
7:00 AM37 °FPassing clouds.7 mph100%30.07 "Hg9 mi
6:00 AM39 °FOvercast.8 mph93%30.06 "Hg9 mi
5:00 AM39 °FOvercast.10 mph93%30.05 "Hg8 mi
4:00 AM39 °FOvercast.7 mph93%30.04 "Hg9 mi
3:04 AM37 °FPartly cloudy.5 mph93%30.03 "Hg9 mi
3:00 AM37 °FPartly cloudy.6 mph93%30.03 "Hg9 mi
Weather by CustomWeather, © 2014

See weather overviewHow to use our weather pages